• En España
  • Lista de países
  • Para 7 días
  • Temperatura del agua
  • Mapa Satelital
  • El tiempo en el mapa
  • Informadores
  • user-avatar
    Iniciar sesión

    Tiempo cada hora Mylniki

    Hoy, 18 Agosto, Sábado

    Tiempo Temperatura Precipitaciones Viento Presión Humedad
    00:00 +8°C° 0 mm 2 mps 754 mmHg 94%
    01:00 +8°C° 0 mm 2 mps 754 mmHg 96%
    02:00 +7°C° 0 mm 2 mps 754 mmHg 96%
    03:00 +7°C° 0 mm 2 mps 754 mmHg 96%
    04:00 +7°C° 0 mm 2 mps 754 mmHg 96%
    05:00 +7°C° 0 mm 2 mps 755 mmHg 93%
    06:00 +8°C° 0 mm 3 mps 755 mmHg 89%
    07:00 +9°C° 0 mm 3 mps 755 mmHg 86%
    08:00 +11°C° 0 mm 3 mps 755 mmHg 78%
    09:00 +12°C° 0 mm 3 mps 755 mmHg 71%
    10:00 +14°C° 0 mm 4 mps 755 mmHg 63%
    11:00 +14°C° 0,1 mm 4 mps 755 mmHg 61%
    12:00 +16°C° 0,1 mm 3 mps 755 mmHg 59%
    13:00 +16°C° 0,1 mm 3 mps 754 mmHg 56%
    14:00 +17°C° 0 mm 3 mps 755 mmHg 55%
    15:00 +17°C° 0 mm 3 mps 755 mmHg 53%
    16:00 +17°C° 0 mm 4 mps 755 mmHg 52%
    17:00 +16°C° 0 mm 3 mps 755 mmHg 58%
    18:00 +15°C° 0 mm 2 mps 755 mmHg 64%
    19:00 +14°C° 0 mm 2 mps 755 mmHg 71%
    20:00 +13°C° 0 mm 2 mps 755 mmHg 76%
    21:00 +12°C° 0 mm 2 mps 755 mmHg 81%
    22:00 +9°C° 0 mm 2 mps 756 mmHg 86%
    23:00 +9°C° 0 mm 2 mps 756 mmHg 88%

    Mañana, 19 Agosto, Domingo

    Tiempo Temperatura Precipitaciones Viento Presión Humedad
    00:00 +8°C° 0 mm 2 mps 756 mmHg 90%
    01:00 +8°C° 0 mm 2 mps 756 mmHg 92%
    02:00 +7°C° 0 mm 2 mps 756 mmHg 92%
    03:00 +7°C° 0 mm 2 mps 756 mmHg 93%
    04:00 +7°C° 0 mm 2 mps 756 mmHg 94%
    05:00 +8°C° 0 mm 2 mps 756 mmHg 90%
    06:00 +8°C° 0 mm 2 mps 757 mmHg 86%
    07:00 +9°C° 0 mm 2 mps 757 mmHg 82%
    08:00 +12°C° 0 mm 2 mps 756 mmHg 74%
    09:00 +14°C° 0 mm 2 mps 756 mmHg 66%
    10:00 +17°C° 0 mm 2 mps 756 mmHg 58%
    11:00 +18°C° 0 mm 2 mps 756 mmHg 54%
    12:00 +19°C° 0 mm 2 mps 755 mmHg 50%
    13:00 +20°C° 0 mm 2 mps 755 mmHg 45%
    14:00 +21°C° 0 mm 1 mps 755 mmHg 45%
    15:00 +21°C° 0 mm 1 mps 755 mmHg 45%
    16:00 +21°C° 0 mm 1 mps 754 mmHg 44%
    17:00 +20°C° 0 mm 1 mps 754 mmHg 51%
    18:00 +19°C° 0 mm 1 mps 754 mmHg 57%
    19:00 +15°C° 0 mm 0 mps 754 mmHg 64%
    20:00 +14°C° 0 mm 0 mps 754 mmHg 67%
    21:00 +14°C° 0 mm 1 mps 754 mmHg 70%
    22:00 +12°C° 0 mm 1 mps 754 mmHg 73%
    23:00 +12°C° 0 mm 1 mps 754 mmHg 75%

    Pasado mañana, 20 Agosto, Lunes

    Tiempo Temperatura Precipitaciones Viento Presión Humedad
    00:00 +11°C° 0 mm 1 mps 754 mmHg 78%
    01:00 +11°C° 0 mm 1 mps 753 mmHg 80%
    02:00 +11°C° 0 mm 1 mps 753 mmHg 82%
    03:00 +11°C° 0 mm 1 mps 753 mmHg 84%
    04:00 +10°C° 0 mm 1 mps 753 mmHg 86%
    05:00 +11°C° 0 mm 1 mps 753 mmHg 83%
    06:00 +12°C° 0 mm 1 mps 753 mmHg 80%
    07:00 +13°C° 0 mm 1 mps 753 mmHg 77%
    08:00 +15°C° 0 mm 2 mps 752 mmHg 72%
    09:00 +17°C° 0 mm 2 mps 752 mmHg 66%
    10:00 +19°C° 0 mm 2 mps 752 mmHg 60%
    11:00 +20°C° 0 mm 2 mps 752 mmHg 58%
    12:00 +21°C° 0 mm 3 mps 751 mmHg 56%
    13:00 +22°C° 0 mm 3 mps 751 mmHg 54%
    14:00 +22°C° 0,1 mm 3 mps 750 mmHg 55%
    15:00 +22°C° 0,1 mm 3 mps 750 mmHg 56%
    16:00 +22°C° 0,1 mm 3 mps 750 mmHg 57%
    17:00 +21°C° 0 mm 3 mps 750 mmHg 64%
    18:00 +20°C° 0 mm 2 mps 750 mmHg 71%
    19:00 +19°C° 0 mm 2 mps 749 mmHg 77%
    20:00 +18°C° 0 mm 2 mps 749 mmHg 81%
    21:00 +16°C° 0 mm 2 mps 749 mmHg 85%
    22:00 +15°C° 0 mm 2 mps 749 mmHg 89%
    23:00 +15°C° 0 mm 2 mps 749 mmHg 90%

    21 Agosto, Martes

    Tiempo Temperatura Precipitaciones Viento Presión Humedad
    00:00 +15°C° 0 mm 2 mps 748 mmHg 91%
    01:00 +15°C° 0 mm 2 mps 748 mmHg 92%
    02:00 +15°C° 0 mm 2 mps 748 mmHg 92%
    03:00 +15°C° 0 mm 2 mps 748 mmHg 93%
    04:00 +15°C° 0 mm 2 mps 748 mmHg 93%
    05:00 +15°C° 0 mm 2 mps 748 mmHg 93%
    06:00 +16°C° 0 mm 3 mps 748 mmHg 92%
    07:00 +16°C° 0 mm 3 mps 747 mmHg 91%
    08:00 +17°C° 0,1 mm 3 mps 747 mmHg 91%
    09:00 +17°C° 0,1 mm 3 mps 747 mmHg 90%
    10:00 +18°C° 0,1 mm 3 mps 747 mmHg 90%
    11:00 +19°C° 0 mm 2 mps 747 mmHg 87%
    12:00 +19°C° 0 mm 2 mps 747 mmHg 84%
    13:00 +20°C° 0 mm 2 mps 747 mmHg 81%
    14:00 +21°C° 0,2 mm 2 mps 747 mmHg 79%
    15:00 +21°C° 0,2 mm 2 mps 746 mmHg 78%
    16:00 +23°C° 0,2 mm 2 mps 746 mmHg 76%
    17:00 +21°C° 0,4 mm 2 mps 746 mmHg 81%
    18:00 +21°C° 0,4 mm 1 mps 746 mmHg 85%
    19:00 +20°C° 0,4 mm 1 mps 746 mmHg 89%
    20:00 +19°C° 0 mm 1 mps 746 mmHg 91%
    21:00 +18°C° 0 mm 1 mps 746 mmHg 93%
    22:00 +16°C° 0 mm 1 mps 746 mmHg 95%
    23:00 +16°C° 0 mm 1 mps 746 mmHg 96%

    22 Agosto, Miércoles

    Tiempo Temperatura Precipitaciones Viento Presión Humedad
    00:00 +16°C° 0 mm 1 mps 746 mmHg 96%
    01:00 +15°C° 0 mm 1 mps 746 mmHg 96%
    02:00 +15°C° 0 mm 1 mps 746 mmHg 96%
    03:00 +14°C° 0 mm 1 mps 746 mmHg 96%
    04:00 +14°C° 0 mm 1 mps 746 mmHg 96%
    05:00 +14°C° 0 mm 1 mps 746 mmHg 95%
    06:00 +15°C° 0 mm 1 mps 746 mmHg 93%
    07:00 +16°C° 0 mm 1 mps 746 mmHg 92%
    08:00 +18°C° 0 mm 1 mps 746 mmHg 86%
    09:00 +19°C° 0 mm 2 mps 746 mmHg 79%
    10:00 +21°C° 0 mm 3 mps 745 mmHg 73%
    11:00 +22°C° 0 mm 3 mps 745 mmHg 69%
    12:00 +23°C° 0 mm 4 mps 744 mmHg 65%
    13:00 +25°C° 0 mm 5 mps 743 mmHg 60%
    14:00 +23°C° 0,7 mm 5 mps 743 mmHg 68%
    15:00 +22°C° 0,7 mm 5 mps 742 mmHg 76%
    16:00 +22°C° 0,7 mm 5 mps 741 mmHg 83%
    17:00 +21°C° 1,2 mm 5 mps 741 mmHg 86%
    18:00 +20°C° 1,2 mm 5 mps 741 mmHg 89%
    19:00 +19°C° 1,2 mm 5 mps 740 mmHg 91%
    20:00 +17°C° 0,5 mm 5 mps 740 mmHg 92%
    21:00 +16°C° 0,5 mm 5 mps 740 mmHg 92%
    22:00 +15°C° 0,5 mm 5 mps 740 mmHg 93%
    23:00 +14°C° 0 mm 5 mps 740 mmHg 92%

    23 Agosto, Jueves

    Tiempo Temperatura Precipitaciones Viento Presión Humedad
    00:00 +13°C° 0 mm 5 mps 740 mmHg 92%
    01:00 +10°C° 0 mm 5 mps 740 mmHg 91%
    02:00 +10°C° 0 mm 5 mps 740 mmHg 90%
    03:00 +10°C° 0 mm 5 mps 740 mmHg 90%
    04:00 +10°C° 0 mm 6 mps 740 mmHg 89%
    05:00 +10°C° 0 mm 6 mps 740 mmHg 87%
    06:00 +10°C° 0 mm 6 mps 740 mmHg 85%
    07:00 +10°C° 0 mm 6 mps 740 mmHg 84%
    08:00 +10°C° 0,1 mm 6 mps 741 mmHg 81%
    09:00 +11°C° 0,1 mm 7 mps 741 mmHg 79%
    10:00 +11°C° 0,1 mm 7 mps 741 mmHg 77%
    11:00 +11°C° 0 mm 7 mps 742 mmHg 75%
    12:00 +11°C° 0 mm 7 mps 742 mmHg 74%
    13:00 +11°C° 0 mm 7 mps 743 mmHg 72%
    14:00 +12°C° 0 mm 7 mps 743 mmHg 71%
    15:00 +13°C° 0 mm 6 mps 744 mmHg 70%
    16:00 +13°C° 0 mm 6 mps 744 mmHg 68%
    17:00 +13°C° 0 mm 5 mps 744 mmHg 70%
    18:00 +13°C° 0 mm 4 mps 744 mmHg 71%
    19:00 +13°C° 0 mm 3 mps 745 mmHg 73%
    20:00 +12°C° 0 mm 3 mps 745 mmHg 77%
    21:00 +12°C° 0 mm 2 mps 745 mmHg 82%
    22:00 +10°C° 0 mm 2 mps 745 mmHg 86%
    23:00 +10°C° 0 mm 2 mps 744 mmHg 85%
    Mostrar más